Wind_Speed
23 25 28 29 30 32 33 35 37 38 38 40 43 45 45 46 47 48 48 49 48 47 46 46 45 44 44 43 42 41 40 40 40 39 39 39 38 37 36 35 33 31 30 29 28 26 26 26 25 25 23 21 19 19 19 18 17 16 15 15 15 15 14
23 24 27 28 30 31 33 34 36 39 40 41 44 45 45 46 47 49 49 49 48 48 47 47 46 46 45 44 44 42 41 41 41 40 39 40 39 38 37 36 34 32 31 30 28 27 27 26 26 26 25 23 20 19 19 18 18 17 16 16 17 17 16
22 24 26 28 31 32 33 34 35 38 41 43 45 46 47 47 47 48 48 48 48 47 47 47 47 47 46 46 45 44 43 42 41 41 41 41 40 39 38 37 35 33 31 30 29 28 27 27 27 27 27 25 23 21 20 19 19 18 18 18 18 18 18
21 23 25 28 30 30 31 33 35 37 39 43 47 49 49 49 48 46 46 47 47 47 48 48 47 47 46 46 46 45 45 44 42 42 43 42 41 40 39 38 36 34 32 30 29 29 28 28 27 27 28 27 25 24 22 21 20 19 19 19 19 20 20
21 22 22 24 26 27 29 33 35 37 38 42 46 49 50 49 48 46 45 45 45 47 48 47 47 47 47 46 46 46 46 45 44 43 43 41 41 40 40 39 37 35 33 32 30 29 29 29 28 28 28 27 26 25 24 23 22 21 21 20 20 22 21
21 22 23 24 25 27 30 33 35 36 37 38 40 44 46 45 46 47 46 45 45 46 47 47 47 47 48 47 47 47 46 46 45 44 43 42 42 42 41 40 38 36 34 33 32 31 30 30 30 29 29 28 27 27 26 25 23 23 23 22 22 23 23
20 22 25 26 26 28 30 32 33 33 34 34 34 36 38 40 43 44 44 45 46 46 46 47 48 48 48 48 48 48 48 47 46 45 45 44 43 43 42 41 40 38 36 35 34 33 32 32 32 31 30 29 28 28 28 27 25 25 25 24 24 25 25
18 20 23 24 24 25 26 28 28 29 30 30 31 33 36 38 39 41 43 45 46 46 46 46 47 48 48 48 48 48 48 48 47 46 46 45 45 44 44 43 42 40 38 37 36 35 34 34 33 33 32 31 30 30 29 29 27 26 27 27 26 26 25
13 13 16 17 18 19 20 21 22 24 27 30 32 34 35 36 38 41 45 45 43 45 47 47 46 47 47 48 48 48 48 48 47 47 46 46 46 45 44 44 43 41 40 38 38 38 37 36 35 34 34 34 33 32 31 30 29 29 29 29 29 28 27
7 9 11 12 15 16 17 18 20 24 27 31 33 34 34 34 36 40 44 46 45 47 47 46 46 46 46 47 47 47 48 48 47 47 47 46 46 46 45 44 43 43 41 39 39 40 39 37 36 36 35 35 35 35 34 33 32 31 31 31 31 30 28
4 7 9 11 13 15 17 19 21 25 28 31 34 34 34 35 35 36 39 43 46 47 46 45 45 46 47 46 46 46 47 47 47 48 48 47 47 47 46 46 45 44 43 41 39 40 40 39 38 37 37 38 38 38 37 36 35 34 33 33 33 32 30
2 5 8 10 12 14 17 20 23 25 27 31 33 33 34 35 35 34 35 37 39 39 40 42 44 45 47 47 46 47 47 47 48 48 48 48 47 47 47 47 46 46 45 42 40 40 40 40 40 39 39 39 39 39 39 38 38 37 36 35 35 34 32
4 5 6 8 10 13 16 18 21 24 26 28 30 30 32 34 35 34 34 34 34 34 35 38 42 45 47 48 48 48 48 47 47 47 47 47 47 47 47 46 46 46 45 43 41 40 40 41 41 40 39 39 39 39 39 39 40 40 39 37 37 36 35
8 8 6 8 10 13 15 17 19 21 23 25 27 29 30 32 33 34 35 34 33 33 34 36 40 44 46 48 49 50 50 49 48 47 47 46 46 46 46 46 45 45 44 44 42 41 40 41 42 41 40 39 40 40 39 40 41 42 42 40 39 39 38
13 11 7 6 9 10 12 13 15 16 19 21 24 28 30 31 33 34 36 36 35 35 35 36 39 43 46 48 50 51 51 50 49 48 47 47 47 47 47 46 45 45 44 44 43 41 39 39 40 40 40 40 40 40 40 40 42 44 44 43 42 42 40
18 16 13 9 7 8 7 7 10 11 13 16 20 26 30 31 33 34 35 35 35 36 36 36 39 43 46 48 50 50 50 50 49 49 48 48 48 49 48 47 46 46 46 45 44 42 40 39 40 40 40 40 40 41 41 42 43 44 46 45 44 44 42
21 18 18 14 10 10 8 7 9 11 11 13 16 22 27 31 33 34 33 33 35 37 37 37 39 43 46 47 48 48 48 49 49 48 48 48 48 49 49 48 48 47 47 46 46 44 42 41 41 41 40 39 40 41 42 43 44 45 46 47 46 45 45
21 20 20 18 14 15 16 15 15 16 16 15 15 18 23 28 32 34 34 34 35 35 35 36 39 43 46 46 46 47 48 48 47 47 47 47 48 49 49 48 48 48 48 47 47 46 45 43 43 42 42 41 40 40 42 43 44 46 47 47 46 46 46
23 22 22 20 16 16 19 20 19 19 19 19 17 17 19 23 28 32 34 34 33 31 32 36 39 42 45 45 45 47 47 46 45 46 46 47 48 48 48 48 48 48 48 48 47 46 45 44 43 39 40 43 39 38 43 44 44 46 47 46 46 45 46
22 22 22 21 20 19 21 23 24 23 23 22 19 17 17 20 24 28 31 32 32 33 35 37 38 40 43 45 46 46 46 45 45 45 45 46 47 47 47 47 46 46 48 48 48 46 40 40 40 33 32 38 34 31 37 43 45 46 47 46 46 45 45
21 21 21 21 22 23 26 28 29 28 27 24 20 17 18 20 22 25 28 30 33 36 38 39 39 40 42 45 46 46 45 44 44 45 45 46 47 47 47 47 45 46 47 47 49 47 37 34 36 31 28 32 30 26 30 37 43 47 46 46 46 44 44
20 19 18 18 21 25 28 30 30 28 26 23 21 18 18 19 20 22 25 27 31 36 38 40 41 42 43 44 44 44 44 44 44 45 45 45 46 47 47 47 46 46 47 47 48 46 38 34 33 30 27 29 30 30 29 31 38 45 47 46 46 44 45
19 18 19 21 24 27 28 29 29 26 24 22 21 18 17 17 18 21 24 25 28 32 36 40 42 43 44 43 42 42 42 43 44 44 44 45 46 47 47 46 46 46 47 48 47 44 43 40 34 30 29 30 32 33 32 30 35 43 46 46 46 45 46
14 16 19 23 25 25 25 26 27 25 23 21 19 17 17 17 18 21 24 25 26 29 33 38 41 42 43 42 41 42 42 42 43 44 44 45 45 46 45 45 46 45 45 46 45 44 44 42 38 35 32 31 32 32 31 31 34 39 44 46 47 46 46
9 12 17 20 21 23 24 24 24 22 20 19 17 16 17 17 17 20 23 25 25 26 30 36 39 40 41 42 41 41 41 41 41 41 41 42 43 44 44 44 44 44 43 43 43 44 41 37 37 38 33 30 33 33 31 32 34 37 41 45 45 44 44
11 14 17 17 19 21 21 20 19 15 13 15 17 16 17 17 17 19 21 22 24 26 28 32 33 34 36 38 39 40 39 38 37 37 38 40 42 42 42 42 42 42 43 42 40 41 40 37 36 36 32 32 33 32 32 33 33 35 40 42 42 42 43
12 14 14 15 17 18 15 14 14 12 12 16 17 16 17 17 17 18 18 20 22 24 24 25 27 29 30 32 35 36 36 35 35 36 37 38 39 40 40 41 41 41 41 41 37 36 38 38 37 34 32 33 32 30 33 36 33 34 38 41 42 43 43
11 10 10 11 12 10 9 10 11 12 13 14 14 16 18 18 17 17 17 17 19 20 20 20 22 25 27 28 31 32 33 34 34 35 36 36 37 39 39 39 39 40 40 39 36 36 37 39 39 35 32 33 32 32 36 37 35 35 39 42 44 45 46
8 8 8 7 6 5 5 8 9 11 12 12 13 14 15 17 17 17 16 17 18 19 18 18 19 22 24 26 28 30 31 31 32 32 33 34 35 35 36 37 38 39 40 39 38 37 35 34 35 35 34 33 34 35 36 35 35 37 41 43 43 45 47
6 6 6 5 5 4 3 3 5 7 9 11 13 13 13 15 18 19 19 20 22 21 20 19 20 21 22 22 24 26 28 28 29 30 30 31 32 32 34 36 36 37 38 36 33 32 30 28 29 33 33 33 33 35 35 33 34 38 42 43 43 44 45
5 4 3 3 3 2 1 1 1 1 3 7 11 13 15 15 17 19 20 19 19 18 18 19 20 20 20 19 20 22 23 25 27 28 28 28 29 31 33 34 35 36 35 30 25 25 25 26 28 31 32 32 33 35 34 33 34 38 42 44 44 44 44
3 2 2 2 1 1 2 1 3 4 4 4 5 8 11 13 14 16 16 16 15 16 16 16 17 17 16 16 17 18 20 21 22 23 24 25 25 27 29 30 32 33 32 27 24 24 24 24 26 30 32 33 33 33 33 34 35 38 41 44 45 46 47
2 1 1 1 1 2 2 2 3 4 5 6 6 5 5 6 7 8 10 10 11 12 13 13 14 14 14 15 16 17 17 18 19 19 19 20 22 23 23 23 24 25 26 25 25 26 27 26 26 28 32 33 33 31 32 34 36 39 43 46 46 47 49
2 3 2 2 2 2 3 3 3 4 5 7 7 6 6 6 6 5 4 4 5 6 7 8 10 11 12 13 13 14 15 16 18 18 17 17 19 20 20 20 20 21 23 24 25 27 29 30 30 30 31 32 32 33 34 35 35 37 42 47 48 47 48
4 5 4 3 3 4 4 5 5 5 6 6 6 7 7 8 7 6 6 5 4 4 5 5 7 8 8 9 9 10 12 12 14 15 15 15 17 18 20 21 21 21 22 23 24 26 27 29 31 31 30 31 32 34 36 37 36 34 38 44 45 44 45
7 6 5 4 5 6 7 7 6 6 6 6 6 7 7 9 9 8 7 6 5 5 5 5 6 6 6 6 6 6 6 7 8 9 11 13 14 15 18 19 19 21 23 25 26 28 29 30 32 33 32 34 36 36 37 38 37 34 36 41 43 43 44
7 7 7 7 8 8 10 10 9 8 7 7 7 8 8 9 10 10 8 7 6 5 5 6 7 7 6 6 5 4 4 5 5 6 7 9 10 11 13 14 15 18 21 24 27 29 31 33 35 36 37 39 41 43 42 42 41 40 41 45 47 46 45
8 9 9 10 10 10 11 11 10 10 9 9 8 9 9 10 10 10 9 9 8 8 8 10 11 10 9 8 7 5 5 4 3 4 5 6 8 10 12 13 14 15 18 20 23 27 30 33 36 39 41 43 46 48 48 48 49 49 50 52 53 54 51
Wind_Direction
202 202 204 203 204 204 203 202 202 203 201 203 211 215 214 214 215 217 221 224 225 224 224 224 224 224 225 226 227 227 227 228 229 232 234 234 233 234 235 235 236 236 236 238 239 238 239 241 242 243 243 240 236 236 237 238 237 234 231 226 223 228 231
201 202 204 204 205 205 204 203 202 205 206 208 213 215 214 215 216 217 221 223 224 224 223 223 223 224 225 226 227 227 228 229 230 232 234 233 233 233 234 235 236 236 236 237 239 239 240 241 241 242 243 240 236 235 235 236 236 232 229 226 222 226 229
201 202 203 204 205 205 203 202 202 206 209 210 214 217 216 217 219 219 220 223 224 224 224 224 224 224 225 226 228 228 229 230 230 232 233 233 233 234 235 235 236 237 237 237 238 239 239 239 239 239 240 240 238 236 234 234 234 231 230 228 224 225 228
203 204 204 205 206 205 202 202 203 206 208 212 217 220 220 221 221 220 221 222 223 224 223 224 224 224 225 226 228 229 230 230 231 232 233 233 234 236 236 236 235 236 236 236 236 236 236 236 236 236 237 237 237 235 233 232 232 231 230 229 226 225 228
206 206 206 207 206 204 204 204 206 207 209 212 218 222 223 223 222 221 222 222 224 225 224 224 224 225 226 227 228 230 230 231 231 232 233 233 234 236 236 235 235 234 235 235 235 233 233 233 233 234 234 234 234 234 233 231 230 231 230 229 228 227 228
206 204 205 207 206 205 207 208 208 210 211 210 211 217 220 220 220 222 223 223 223 225 226 227 226 226 226 226 228 230 231 232 231 232 233 233 233 234 235 235 235 234 234 235 235 233 231 231 231 232 233 232 232 233 233 230 229 231 230 228 229 229 229
210 203 204 207 206 206 208 210 210 210 212 209 206 210 212 213 217 220 221 223 225 225 226 228 228 227 228 227 228 230 231 232 232 232 232 233 234 235 236 237 236 235 234 235 236 234 232 231 230 231 232 232 231 231 232 231 228 230 231 228 229 232 231
215 207 207 209 208 208 209 210 209 207 209 207 204 205 208 210 213 215 218 223 225 224 225 227 228 228 228 228 228 229 231 233 233 233 233 234 235 236 237 238 238 237 235 235 236 235 234 232 231 231 232 233 233 231 232 232 229 228 230 230 230 233 233
214 204 207 211 211 212 212 211 208 207 207 207 206 206 206 206 208 214 220 222 221 222 225 226 227 229 230 229 229 229 229 231 233 234 234 235 236 237 238 239 240 240 237 235 235 236 236 234 233 233 232 233 234 233 232 233 231 228 229 231 231 232 234
210 194 202 210 209 209 211 208 207 209 208 206 209 209 206 205 206 212 218 220 220 223 226 224 223 227 230 231 231 230 231 231 232 233 234 234 235 236 237 239 240 241 240 237 235 236 237 236 235 235 233 233 233 233 232 232 232 230 229 231 232 232 233
196 195 205 209 204 203 205 204 208 215 212 210 213 213 210 209 208 208 212 215 218 221 223 222 221 224 229 232 232 232 232 232 232 233 234 234 234 235 236 237 238 240 240 238 235 235 237 236 234 234 233 232 232 232 232 231 231 231 230 231 233 232 232
222 216 215 207 202 204 206 205 211 220 221 219 219 215 214 214 213 210 210 211 213 213 213 216 219 221 227 232 233 233 233 233 233 234 234 235 235 236 236 236 237 238 240 239 236 235 236 236 235 233 232 231 232 232 232 231 231 231 230 230 232 233 232
315 283 243 218 209 209 209 211 217 225 229 228 222 217 217 219 217 214 212 210 210 208 206 210 216 220 225 230 233 234 235 236 235 235 235 235 236 236 237 237 237 238 239 240 240 237 235 236 235 233 231 231 232 232 232 231 230 231 230 230 231 233 232
327 319 280 240 224 217 217 222 227 230 234 233 225 220 220 219 219 219 216 213 209 207 206 207 212 219 224 228 231 235 237 238 238 238 238 237 237 237 237 237 237 237 237 238 240 240 237 236 237 235 233 232 232 232 232 231 231 230 230 229 230 231 232
305 311 303 259 235 229 228 230 234 237 240 239 230 224 221 220 220 219 218 216 211 208 207 206 210 218 223 227 232 236 237 237 238 239 239 239 239 239 239 238 238 237 236 236 239 240 239 238 238 238 236 233 232 232 232 232 231 231 229 228 228 230 232
293 299 305 295 263 252 251 244 250 250 246 245 240 231 225 222 221 220 218 215 213 211 208 206 211 220 224 227 232 235 236 237 238 240 240 240 240 240 240 240 239 238 237 237 238 240 240 239 239 239 238 235 233 232 232 232 231 231 230 229 228 229 231
293 294 297 294 275 262 268 272 274 270 259 258 256 244 234 229 228 225 218 214 214 214 211 208 213 221 226 228 231 233 234 237 239 240 241 241 241 241 241 240 240 239 239 238 239 240 241 240 239 240 239 238 236 234 233 233 233 232 231 230 228 229 231
291 290 289 287 275 267 274 282 285 284 281 277 268 254 246 239 232 227 221 216 213 212 210 209 214 224 229 229 229 232 235 238 239 240 241 242 241 240 240 241 240 240 240 240 240 241 242 242 241 241 240 240 239 237 235 235 235 235 234 232 229 229 231
282 283 283 281 275 273 279 284 285 287 288 284 274 265 259 247 237 234 230 220 210 206 207 208 213 223 229 229 229 233 237 238 239 241 241 241 241 240 240 242 242 242 243 243 243 243 243 243 242 241 241 240 239 239 239 238 237 237 237 235 232 230 231
280 281 281 280 279 281 285 286 285 286 287 284 277 268 259 251 245 240 233 221 211 210 211 210 212 218 226 230 231 234 237 238 239 241 241 241 241 241 241 243 244 244 244 244 244 243 241 240 241 237 236 237 236 235 239 240 239 239 239 238 236 232 232
279 279 279 279 280 281 283 283 284 283 282 280 277 269 257 249 242 233 225 218 215 217 217 215 214 218 225 231 233 234 236 237 238 239 240 241 241 241 242 244 244 245 244 243 243 242 238 237 239 235 229 232 232 229 233 237 239 241 240 240 238 235 233
279 279 277 276 277 279 280 279 278 277 278 278 279 276 262 246 231 221 217 214 213 216 219 219 218 220 226 232 235 237 237 237 239 239 239 239 240 240 241 243 244 244 243 242 242 241 239 238 237 231 227 231 231 230 230 231 235 240 241 241 240 236 234
271 272 272 273 275 276 276 276 275 275 276 277 278 275 261 242 224 214 211 209 209 212 217 221 222 223 227 232 235 237 238 238 239 240 239 239 239 240 242 243 243 244 243 243 241 240 241 241 236 229 229 231 232 233 232 229 232 237 240 241 241 237 233
266 268 270 271 272 272 272 273 274 275 277 277 274 268 255 238 220 210 208 206 206 207 213 222 227 228 230 233 234 236 237 238 240 240 240 240 241 243 243 243 243 244 244 244 243 242 242 240 236 235 235 231 230 233 232 230 233 236 238 240 241 239 235
276 271 268 269 270 270 270 270 273 276 277 270 262 254 246 234 215 209 208 206 204 205 213 224 230 231 231 233 233 235 237 239 240 242 243 243 244 244 243 243 244 244 245 247 246 245 242 237 235 239 238 231 232 235 234 231 232 235 238 240 241 239 236
277 271 268 268 268 268 269 270 271 270 263 253 247 240 234 225 210 206 209 207 206 208 215 226 232 232 233 234 235 237 240 241 243 244 244 244 244 243 244 244 244 245 246 247 245 244 242 238 235 236 234 232 234 236 235 232 231 233 236 238 240 240 237
278 274 273 270 266 264 265 265 260 248 239 241 239 228 220 214 204 203 208 209 211 213 216 225 234 237 237 237 237 238 241 243 244 245 245 245 244 244 243 244 244 245 247 246 242 240 241 241 238 235 233 233 234 233 234 235 233 233 236 237 239 241 239
280 278 276 273 271 265 256 253 247 237 234 235 229 218 212 204 197 199 205 209 214 218 217 221 231 236 238 238 237 237 239 242 243 244 245 245 245 244 244 245 245 247 248 245 241 238 241 243 242 238 233 233 236 234 235 238 236 234 236 237 237 239 240
292 292 286 284 289 283 261 250 238 226 223 219 211 206 202 197 192 192 197 204 208 210 209 209 217 226 233 236 237 235 237 241 244 246 246 246 247 247 247 248 247 247 247 246 242 241 241 242 243 239 233 233 237 236 236 237 237 235 237 239 238 238 240
294 299 299 301 304 300 288 271 235 217 211 204 199 193 187 190 192 188 192 201 204 204 206 208 214 223 230 234 236 234 233 236 242 247 248 249 249 248 248 248 246 244 244 244 242 240 237 236 239 239 235 235 237 236 235 236 236 237 240 242 242 242 242
271 280 287 295 308 327 353 2 38 153 178 184 190 189 185 188 193 194 197 202 203 206 212 216 221 227 231 234 236 234 232 233 238 244 248 250 249 248 248 247 244 243 243 241 237 236 236 235 237 238 237 237 237 236 237 236 234 237 242 245 245 245 245
240 250 248 256 311 51 81 82 75 76 86 112 152 176 182 186 192 198 201 200 200 206 211 215 221 225 227 229 230 229 229 230 233 240 246 249 249 248 249 248 245 245 244 239 233 236 237 236 236 237 238 238 238 237 239 238 236 240 246 247 246 246 247
195 181 148 149 115 101 114 114 93 85 82 82 88 107 134 156 172 184 192 194 200 206 208 212 218 219 220 221 223 223 225 225 225 228 235 242 243 242 243 243 242 242 241 237 235 238 239 237 238 239 239 240 240 240 241 241 240 242 247 248 246 245 246
137 119 108 110 115 110 108 104 98 94 88 83 84 86 86 89 96 105 123 149 169 180 189 200 208 214 217 218 219 222 222 222 224 225 224 229 235 234 232 233 234 237 240 239 238 239 240 241 242 242 242 243 244 244 243 242 240 240 246 250 248 245 245
107 110 111 114 111 97 93 97 97 93 89 85 83 83 82 80 80 79 77 84 100 114 131 156 173 190 200 198 199 213 217 217 227 232 228 227 232 234 234 235 234 236 241 243 243 242 241 243 244 246 248 248 248 246 244 245 244 243 246 253 256 255 254
107 108 100 93 91 86 84 87 89 90 90 85 78 80 82 78 73 71 69 70 84 98 106 122 137 145 154 159 168 190 198 198 213 229 231 229 233 239 245 249 249 245 244 245 246 245 245 244 245 248 249 248 248 248 247 248 251 252 253 258 264 267 265
99 103 101 95 92 89 83 81 83 84 82 80 79 83 86 82 75 73 73 74 80 91 103 118 126 128 135 146 156 169 181 190 207 225 231 235 239 241 245 254 260 258 254 252 251 251 252 252 253 254 254 253 253 254 254 254 254 256 257 260 265 268 267
92 102 106 101 100 100 93 86 86 84 80 81 85 85 85 85 83 80 81 89 98 104 112 117 117 116 121 124 125 131 142 155 180 209 223 234 244 247 248 253 259 262 265 264 260 257 257 256 256 256 256 256 256 257 258 258 256 256 257 258 261 263 264
Height
1444 1446 1449 1452 1453 1456 1458 1459 1463 1466 1469 1473 1475 1479 1483 1486 1489 1492 1495 1498 1502 1505 1508 1511 1514 1517 1520 1522 1525 1528 1530 1532 1534 1536 1538 1540 1542 1544 1546 1547 1549 1551 1553 1555 1556 1558 1559 1561 1562 1563 1564 1566 1567 1569 1570 1571 1572 1573 1574 1575 1576 1576 1577
1439 1442 1444 1447 1449 1451 1453 1456 1459 1461 1464 1467 1470 1474 1478 1481 1484 1486 1490 1493 1497 1501 1504 1507 1510 1513 1516 1519 1522 1524 1526 1528 1531 1533 1535 1536 1538 1540 1542 1544 1546 1548 1550 1552 1554 1555 1557 1558 1559 1561 1562 1563 1565 1566 1567 1568 1569 1570 1571 1572 1573 1574 1575
1435 1437 1439 1442 1443 1445 1449 1452 1455 1457 1459 1462 1465 1468 1471 1475 1478 1481 1485 1489 1492 1497 1500 1503 1506 1509 1512 1515 1517 1520 1522 1524 1527 1529 1531 1532 1534 1537 1539 1541 1543 1545 1547 1549 1551 1552 1554 1555 1556 1558 1559 1561 1562 1563 1565 1566 1567 1568 1569 1570 1571 1572 1573
1431 1432 1435 1438 1439 1442 1445 1448 1450 1452 1455 1457 1459 1462 1465 1469 1473 1477 1481 1484 1488 1492 1494 1498 1501 1505 1508 1511 1513 1516 1518 1520 1522 1525 1527 1529 1532 1534 1536 1538 1540 1542 1544 1546 1548 1549 1551 1552 1553 1555 1556 1558 1559 1561 1562 1563 1564 1565 1566 1567 1569 1569 1570
1428 1430 1433 1435 1437 1440 1442 1443 1446 1447 1450 1452 1455 1458 1461 1465 1469 1473 1477 1480 1484 1487 1489 1494 1497 1501 1504 1506 1509 1511 1513 1516 1518 1521 1523 1526 1528 1530 1532 1534 1536 1539 1541 1542 1544 1546 1547 1549 1550 1552 1553 1555 1557 1558 1559 1561 1562 1563 1564 1565 1566 1567 1568
1424 1427 1429 1431 1433 1436 1436 1438 1441 1443 1446 1449 1452 1455 1458 1462 1465 1468 1472 1476 1479 1483 1486 1490 1493 1496 1499 1501 1504 1506 1509 1511 1514 1517 1519 1522 1524 1526 1528 1530 1532 1535 1537 1539 1541 1542 1544 1546 1547 1548 1550 1551 1553 1555 1556 1557 1559 1560 1561 1562 1563 1564 1565
1420 1423 1424 1426 1428 1430 1432 1434 1437 1440 1443 1447 1451 1454 1456 1460 1462 1465 1469 1471 1474 1478 1481 1485 1488 1490 1493 1496 1499 1502 1504 1507 1509 1512 1515 1517 1520 1522 1524 1526 1528 1531 1534 1535 1537 1539 1540 1542 1543 1545 1547 1548 1550 1551 1553 1554 1555 1557 1558 1559 1560 1561 1562
1417 1419 1421 1423 1425 1428 1430 1432 1434 1438 1441 1444 1448 1450 1452 1455 1458 1461 1464 1466 1469 1473 1476 1479 1482 1485 1488 1491 1494 1496 1499 1502 1505 1508 1511 1513 1515 1517 1520 1522 1524 1527 1530 1532 1533 1535 1536 1538 1540 1541 1543 1545 1546 1548 1549 1551 1552 1554 1555 1556 1557 1558 1559
1415 1418 1421 1422 1425 1427 1429 1431 1434 1437 1439 1441 1443 1445 1448 1450 1453 1455 1458 1461 1465 1467 1470 1474 1477 1480 1483 1486 1488 1491 1494 1497 1500 1503 1506 1508 1511 1513 1515 1518 1520 1522 1524 1527 1529 1530 1532 1534 1536 1537 1539 1541 1542 1544 1546 1547 1548 1550 1551 1552 1554 1555 1556
1414 1417 1419 1421 1423 1425 1427 1430 1432 1433 1435 1436 1438 1441 1444 1446 1448 1450 1453 1456 1459 1461 1464 1468 1472 1475 1478 1481 1484 1487 1490 1492 1495 1498 1500 1503 1506 1508 1511 1513 1515 1517 1519 1522 1524 1525 1527 1529 1531 1533 1535 1536 1538 1540 1542 1544 1545 1546 1548 1549 1550 1551 1552
1414 1416 1417 1419 1421 1422 1424 1426 1427 1429 1430 1432 1434 1437 1440 1442 1444 1447 1449 1451 1453 1456 1460 1463 1467 1470 1472 1475 1479 1482 1485 1487 1490 1493 1495 1497 1500 1503 1506 1509 1510 1512 1514 1516 1519 1520 1522 1524 1527 1528 1530 1531 1533 1535 1537 1539 1541 1543 1544 1545 1546 1548 1549
1413 1414 1415 1417 1418 1419 1421 1423 1424 1425 1426 1428 1430 1433 1436 1438 1441 1443 1446 1448 1451 1454 1457 1459 1462 1464 1467 1470 1473 1476 1479 1482 1485 1487 1490 1492 1495 1498 1501 1504 1506 1507 1508 1511 1513 1516 1518 1519 1521 1523 1525 1527 1529 1531 1533 1535 1537 1539 1540 1541 1542 1544 1545
1412 1413 1413 1414 1415 1417 1418 1420 1421 1422 1423 1426 1428 1430 1433 1435 1437 1440 1443 1445 1448 1452 1455 1456 1458 1460 1462 1465 1467 1470 1472 1475 1478 1481 1484 1487 1490 1493 1496 1498 1500 1502 1503 1506 1508 1511 1513 1514 1515 1518 1520 1522 1524 1526 1529 1531 1533 1534 1536 1537 1538 1540 1541
1411 1411 1412 1412 1413 1414 1415 1417 1418 1420 1421 1423 1425 1428 1429 1431 1434 1436 1438 1441 1445 1448 1451 1452 1454 1455 1457 1460 1462 1464 1466 1469 1473 1476 1479 1482 1485 1488 1490 1492 1495 1497 1499 1501 1502 1505 1507 1509 1511 1513 1516 1518 1520 1522 1524 1526 1528 1529 1531 1533 1534 1535 1537
1408 1409 1410 1411 1411 1412 1413 1415 1416 1418 1419 1421 1422 1424 1425 1427 1429 1431 1434 1437 1440 1443 1446 1448 1449 1451 1453 1455 1456 1458 1461 1465 1469 1471 1475 1478 1480 1482 1484 1487 1489 1492 1494 1496 1497 1500 1502 1505 1507 1509 1511 1513 1515 1517 1519 1520 1522 1523 1525 1527 1529 1531 1532
1406 1406 1407 1409 1410 1410 1411 1412 1414 1415 1417 1418 1419 1420 1422 1424 1425 1427 1430 1433 1435 1438 1441 1444 1446 1447 1449 1450 1451 1454 1458 1461 1464 1467 1470 1472 1474 1476 1479 1482 1484 1487 1489 1491 1493 1495 1498 1500 1502 1504 1506 1508 1510 1512 1513 1514 1516 1517 1520 1522 1524 1526 1528
1404 1405 1406 1407 1409 1410 1410 1411 1412 1413 1415 1416 1416 1417 1418 1420 1421 1423 1426 1429 1431 1433 1437 1440 1442 1443 1445 1446 1449 1452 1454 1456 1459 1462 1465 1467 1469 1472 1474 1477 1480 1482 1484 1487 1489 1491 1493 1496 1497 1499 1501 1503 1505 1507 1508 1509 1511 1512 1514 1517 1520 1523 1524
1403 1404 1405 1406 1408 1408 1408 1410 1410 1411 1412 1413 1414 1414 1414 1415 1417 1420 1422 1424 1426 1429 1433 1437 1438 1439 1440 1443 1446 1448 1450 1452 1455 1457 1460 1462 1465 1467 1470 1473 1476 1478 1480 1482 1484 1487 1489 1491 1493 1495 1498 1499 1501 1502 1504 1505 1506 1507 1509 1512 1515 1519 1521
1404 1404 1405 1406 1406 1406 1407 1407 1408 1408 1409 1410 1411 1411 1411 1412 1413 1414 1416 1420 1424 1428 1430 1432 1433 1435 1437 1440 1443 1444 1446 1449 1451 1453 1456 1458 1460 1463 1466 1469 1472 1474 1475 1478 1480 1483 1485 1487 1489 1492 1494 1495 1496 1498 1499 1500 1501 1503 1505 1507 1511 1514 1517
1404 1404 1404 1405 1405 1405 1405 1405 1405 1406 1406 1407 1408 1408 1409 1409 1409 1410 1413 1418 1421 1423 1425 1427 1429 1431 1433 1435 1437 1439 1441 1444 1446 1449 1451 1453 1456 1459 1462 1464 1467 1469 1471 1474 1476 1479 1481 1483 1485 1488 1489 1490 1492 1494 1494 1495 1496 1498 1500 1503 1506 1510 1512
1403 1403 1403 1403 1403 1403 1403 1403 1403 1403 1403 1404 1405 1405 1406 1406 1407 1409 1412 1414 1416 1417 1419 1422 1425 1427 1428 1429 1431 1433 1435 1438 1441 1444 1447 1449 1452 1454 1457 1459 1461 1464 1466 1469 1471 1474 1476 1479 1480 1482 1484 1485 1487 1489 1489 1490 1491 1492 1495 1498 1501 1505 1508
1401 1401 1401 1401 1401 1400 1400 1400 1400 1400 1401 1401 1402 1402 1403 1403 1405 1407 1408 1410 1412 1413 1415 1418 1421 1423 1424 1424 1426 1428 1430 1433 1436 1439 1442 1445 1447 1449 1451 1453 1455 1458 1461 1464 1467 1469 1472 1474 1475 1478 1480 1480 1481 1483 1483 1484 1486 1487 1489 1492 1495 1499 1502
1399 1399 1399 1398 1398 1398 1397 1397 1397 1397 1398 1398 1399 1399 1399 1400 1402 1403 1405 1407 1409 1410 1412 1414 1416 1417 1419 1420 1421 1424 1427 1430 1433 1435 1439 1441 1443 1444 1446 1448 1451 1454 1457 1460 1462 1465 1467 1468 1471 1474 1475 1475 1475 1476 1477 1479 1481 1481 1483 1485 1489 1492 1495
1396 1396 1396 1396 1396 1395 1395 1394 1394 1395 1395 1395 1396 1396 1396 1397 1398 1400 1401 1404 1406 1408 1409 1410 1410 1412 1414 1416 1419 1422 1425 1427 1429 1432 1435 1437 1438 1440 1442 1445 1448 1451 1453 1456 1458 1460 1462 1465 1467 1468 1470 1471 1471 1470 1472 1474 1475 1476 1478 1480 1482 1485 1487
1395 1394 1394 1393 1393 1393 1392 1392 1392 1392 1393 1393 1393 1393 1393 1394 1395 1396 1398 1400 1403 1405 1405 1405 1407 1409 1412 1415 1418 1420 1422 1424 1426 1428 1430 1432 1434 1437 1440 1443 1446 1448 1450 1452 1454 1456 1459 1462 1463 1463 1465 1467 1467 1467 1468 1469 1470 1470 1472 1474 1476 1478 1481
1393 1392 1391 1391 1391 1390 1390 1390 1390 1390 1391 1390 1390 1391 1391 1391 1392 1393 1395 1397 1400 1401 1402 1403 1405 1408 1410 1413 1415 1417 1418 1420 1422 1424 1426 1428 1431 1434 1437 1440 1442 1444 1446 1448 1450 1453 1455 1457 1458 1459 1460 1462 1463 1463 1464 1464 1465 1465 1466 1468 1470 1472 1475
1392 1391 1390 1390 1389 1388 1388 1388 1387 1388 1388 1388 1388 1389 1389 1389 1390 1391 1392 1394 1396 1398 1400 1402 1403 1405 1407 1409 1411 1413 1415 1417 1419 1421 1423 1426 1428 1431 1434 1436 1438 1440 1441 1443 1446 1448 1449 1451 1453 1454 1456 1457 1457 1458 1459 1459 1459 1460 1461 1462 1464 1466 1469
1391 1390 1389 1388 1388 1387 1387 1386 1385 1385 1386 1386 1387 1387 1387 1387 1388 1389 1390 1392 1394 1396 1398 1400 1401 1402 1404 1406 1408 1410 1412 1414 1416 1418 1420 1423 1425 1427 1430 1432 1434 1436 1437 1439 1441 1442 1444 1445 1447 1449 1450 1452 1453 1453 1454 1453 1453 1454 1455 1455 1456 1458 1461
1391 1390 1389 1388 1387 1387 1386 1385 1384 1384 1384 1384 1386 1386 1386 1387 1386 1387 1389 1390 1391 1393 1396 1398 1399 1400 1402 1403 1406 1408 1410 1411 1413 1415 1417 1419 1421 1423 1425 1427 1430 1431 1433 1435 1437 1438 1440 1441 1442 1443 1445 1447 1448 1448 1448 1448 1448 1447 1447 1447 1449 1451 1452
1391 1391 1389 1388 1387 1385 1385 1384 1383 1383 1383 1383 1384 1385 1386 1386 1386 1386 1387 1387 1389 1391 1393 1395 1397 1398 1400 1402 1404 1406 1408 1409 1411 1412 1415 1416 1418 1420 1422 1423 1426 1427 1429 1431 1433 1435 1436 1437 1438 1439 1440 1441 1442 1442 1442 1442 1442 1441 1440 1440 1442 1443 1445
1392 1391 1390 1388 1387 1385 1386 1386 1384 1383 1383 1382 1383 1384 1385 1385 1385 1385 1386 1386 1388 1390 1392 1393 1395 1397 1398 1400 1402 1403 1406 1407 1409 1410 1412 1414 1415 1417 1418 1420 1422 1423 1425 1427 1429 1430 1431 1432 1433 1434 1435 1435 1436 1436 1435 1435 1436 1435 1433 1433 1435 1437 1438
1391 1391 1390 1389 1387 1386 1387 1387 1386 1385 1384 1383 1383 1384 1384 1384 1385 1385 1386 1387 1388 1389 1390 1392 1394 1395 1397 1398 1399 1401 1403 1405 1406 1408 1409 1411 1413 1414 1415 1417 1419 1420 1422 1424 1425 1426 1426 1427 1428 1429 1430 1430 1430 1430 1430 1431 1431 1430 1428 1428 1430 1431 1432
1390 1390 1390 1389 1388 1387 1388 1387 1387 1386 1385 1384 1384 1384 1384 1384 1385 1385 1386 1387 1387 1389 1390 1391 1392 1394 1395 1396 1397 1399 1400 1402 1404 1405 1407 1409 1410 1411 1413 1414 1416 1417 1419 1420 1421 1421 1422 1423 1423 1424 1425 1425 1424 1425 1426 1426 1426 1424 1422 1422 1424 1424 1426
1390 1390 1390 1389 1388 1388 1387 1387 1388 1387 1387 1386 1385 1385 1385 1385 1385 1386 1386 1387 1387 1388 1389 1390 1392 1393 1394 1395 1396 1397 1399 1400 1401 1403 1405 1406 1408 1409 1411 1412 1414 1415 1415 1416 1417 1417 1418 1419 1419 1419 1420 1420 1420 1421 1421 1420 1420 1418 1415 1414 1415 1418 1421
1389 1389 1389 1389 1389 1388 1387 1387 1388 1388 1388 1387 1386 1386 1385 1385 1386 1386 1387 1387 1388 1389 1390 1391 1392 1392 1393 1395 1396 1396 1397 1398 1399 1401 1403 1404 1405 1406 1407 1409 1411 1412 1413 1413 1414 1414 1415 1415 1415 1416 1417 1417 1417 1417 1416 1414 1413 1413 1411 1410 1411 1414 1415
1389 1389 1389 1389 1389 1389 1388 1388 1388 1389 1389 1388 1387 1387 1386 1386 1387 1387 1387 1388 1389 1390 1391 1392 1392 1393 1394 1395 1396 1396 1396 1398 1399 1399 1401 1402 1403 1404 1405 1405 1406 1408 1408 1409 1410 1410 1411 1411 1411 1412 1413 1413 1412 1411 1411 1410 1409 1410 1410 1407 1407 1409 1410
1389 1389 1389 1390 1390 1390 1390 1390 1390 1390 1390 1389 1389 1389 1388 1388 1388 1388 1389 1390 1390 1391 1392 1393 1393 1394 1393 1394 1394 1394 1395 1396 1397 1398 1399 1400 1401 1402 1403 1403 1403 1403 1403 1404 1405 1406 1406 1406 1406 1407 1407 1407 1406 1405 1406 1406 1406 1406 1405 1402 1401 1402 1404
1390 1389 1390 1390 1390 1391 1391 1391 1391 1391 1391 1391 1391 1391 1390 1390 1389 1390 1390 1391 1391 1391 1392 1392 1393 1394 1393 1393 1394 1394 1394 1395 1396 1397 1398 1398 1399 1399 1400 1400 1400 1400 1399 1400 1400 1400 1400 1400 1400 1400 1400 1400 1399 1399 1398 1398 1399 1400 1399 1396 1395 1395 1397